Other Public Products
Issued by NWS Grand Forks, ND

Home | Current Version | Previous Version | Graphics & Text | Print | Product List | Glossary On
Versions: 1 2 3 4 5 6 7 8 9 10 11 12 13 14 15 16 17 18 19 20 21 22 23 24 25 26 27 28 29 30 31 32 33 34 35 36 37 38 39 40 41 42 43 44 45 46 47 48 49 50
000
FPUS83 KFGF 240010
OPUFGF
PRAIRIE TO PINES WEATHER ROUNDUP
NATIONAL WEATHER SERVICE EASTERN NORTH DAKOTA/GRAND FORKS ND
700 PM CDT WED JUL 23 2014

 **SATELLITE DATA USED TO AUGMENT SKY COVER AT AUTOMATED STATIONS**
 *****  WEATHER ACROSS EASTERN NORTH DAKOTA  *****

CITY           SKY/WX    TMP DP  RH WIND       PRES   REMARKS
GRAND FORKS    MOSUNNY   74  59  59 NW5       30.21F
6HR MIN TEMP:  71; 6HR MAX TEMP:  75;

GRAND FORKS AF SUNNY     73  59  62 N5        30.22F
GRAND CITY NWS   N/A     73 N/A N/A N6          N/A
BUXTON         NOT AVBL
DEVILS LAKE    PTSUNNY   73  57  56 E8        30.20F
6HR MIN TEMP:  70; 6HR MAX TEMP:  73;

FARGO          SUNNY     76  57  51 NE8       30.20F
6HR MIN TEMP:  75; 6HR MAX TEMP:  79;

WAHPETON ARPT  CLEAR     77  54  44 N5        30.20F
$$

 *****  WEATHER ACROSS CENTRAL AND WESTERN NORTH DAKOTA  *****

CITY           SKY/WX    TMP DP  RH WIND       PRES   REMARKS
JAMESTOWN      SUNNY     77  57  50 S8        30.19F
6HR MIN TEMP:  75; 6HR MAX TEMP:  79;

BISMARCK       SUNNY     82  60  47 SE17      30.13F
6HR MIN TEMP:  76; 6HR MAX TEMP:  84;

MINOT          MOSUNNY   76  66  71 E16       30.13F
6HR MIN TEMP:  70; 6HR MAX TEMP:  77;

MINOT AFB      MOSUNNY   75  68  78 E16       30.13F
6HR MIN TEMP:  71; 6HR MAX TEMP:  77;

GARRISON         N/A     79  65  62 SE13      30.12F
6HR MIN TEMP:  76; 6HR MAX TEMP:  80;

WILLISTON      MOSUNNY   86  61  42 SE17G25   30.05F
6HR MIN TEMP:  83; 6HR MAX TEMP:  89;

DICKINSON      MOSUNNY   79  62  56 SE18G26   30.08F
6HR MIN TEMP:  79; 6HR MAX TEMP:  84;

HETTINGER      SUNNY     81  59  47 SE23      30.08F
6HR MIN TEMP:  80; 6HR MAX TEMP:  84;

$$

 *****  OTHER OBSERVATIONS NORTHEAST NORTH DAKOTA  *****

CITY           SKY/WX    TMP DP  RH WIND       PRES   REMARKS
WALHALLA         N/A     72  54  53 E5          N/A
LANGDON        FAIR      70  55  60 SE5       30.24S
CAVALIER       FAIR      72  52  49 NE7       30.22S
GRAFTON        FAIR      72  54  53 N6        30.21F
CANDO          FAIR      72  57  60 SE8       30.21F
FORT TOTTEN      N/A     74  62  64 E6        29.95S
ROLLA          FAIR      70  59  68 SE8G22    30.22F
RUGBY          FAIR      72  63  73 E14       30.18F
 ***** THE ABOVE OBSERVATIONS ARE NON NWS ARE NOT QUALITY
        CONTROLLED AND MAY MIS-REPORT RAIN FOR SNOW...
$$

 *****  OTHER OBSERVATIONS SOUTHEAST NORTH DAKOTA *****

CITY           SKY/WX    TMP DP  RH WIND       PRES   REMARKS
COOPERSTOWN    NOT AVBL
VALLEY CITY    MOCLDY    75  59  57 E7        30.21S
OAKES          NOT AVBL
GWINNER        CLEAR     79  57  47 SE7       30.21F
BUFFALO        NOT AVBL
WYNDMERE       NOT AVBL
 ***** THE ABOVE OBSERVATIONS ARE NON NWS ARE NOT QUALITY
       CONTROLLED AND MAY MIS-REPORT RAIN FOR SNOW...
$$

  *****  WEATHER ACROSS NORTHERN MINNESOTA  *****

CITY           SKY/WX    TMP DP  RH WIND       PRES   REMARKS
FLAG ISLAND    SUNNY     70  46  43 NE7       30.21F
WARROAD        NOT AVBL
ROSEAU         SUNNY     72  55  56 E7        30.22F
HALLOCK        MOSUNNY   73  48  40 NE3       30.20F
THF RVR FALLS  SUNNY     72  55  56 NW6       30.21F
6HR MIN TEMP:  70; 6HR MAX TEMP:  73;

HALSTAD          N/A     77  54  43 N2          N/A
FOSSTON        SUNNY     75  57  53 NW5       30.22F
BAUDETTE       SUNNY     70  49  47 CALM      30.23F
6HR MIN TEMP:  70; 6HR MAX TEMP:  74;

WASKISH        SUNNY     73  55  53 CALM      30.21S
CROOKSTON      SUNNY     73  59  60 N6        30.21F
$$
  *****  WEATHER ACROSS CENTRAL AND WEST MINNESOTA  *****

CITY           SKY/WX    TMP DP  RH WIND       PRES   REMARKS
BEMIDJI        SUNNY     73  53  50 NW9       30.21F
PARK RAPIDS    MOSUNNY   74  52  46 N8        30.21F
6HR MIN TEMP:  73; 6HR MAX TEMP:  78;

WADENA         SUNNY     73  55  53 N8        30.21F
DETROIT LAKES  MOSUNNY   73  55  53 NW8       30.24F
MOORHEAD       SUNNY     75  61  60 NE7       30.21F
FERGUS FALLS   MOSUNNY   77  54  44 N6        30.20F
ELBOW LAKE     FAIR      75  58  55 N3        30.20F
MORRIS MN      SUNNY     77  61  57 NE6       30.20F
STAPLES        MOSUNNY   72  54  53 NW6       30.21F
WHEATON        SUNNY     75  57  53 CALM      30.21F
$$
  *****  WEATHER ELSEWHERE ACROSS MINNESOTA  *****

CITY           SKY/WX    TMP DP  RH WIND       PRES   REMARKS
DULUTH         MOSUNNY   72  54  53 CALM      30.20S
6HR MIN TEMP:  71; 6HR MAX TEMP:  76;

INTRNTL FALLS  MOSUNNY   71  50  47 NE5       30.21F
6HR MIN TEMP:  68; 6HR MAX TEMP:  72;

ELY            MOSUNNY   70  46  43 NE6       30.22S
CLOQUET        MOSUNNY   73  46  38 N5        30.20S
BRAINERD       SUNNY     74  51  44 N8        30.20F
6HR MIN TEMP:  72; 6HR MAX TEMP:  76;

HIBBING        MOSUNNY   74  50  42 N8        30.21F
6HR MIN TEMP:  70; 6HR MAX TEMP:  76;

ALEXANDRIA     SUNNY     74  56  53 N5        30.23F
6HR MIN TEMP:  74; 6HR MAX TEMP:  78;

SAINT CLOUD    SUNNY     80  50  34 N5        30.19F
6HR MIN TEMP:  76; 6HR MAX TEMP:  82;

MINNEAPOLIS    MOSUNNY   79  48  33 W6        30.17F
6HR MIN TEMP:  78; 6HR MAX TEMP:  84;

$$

  *****  WEATHER ACROSS SOUTH DAKOTA  *****

CITY           SKY/WX    TMP DP  RH WIND       PRES   REMARKS
SIOUX FALLS    MOSUNNY   78  57  48 NE9       30.18F
6HR MIN TEMP:  76; 6HR MAX TEMP:  81;

BROOKINGS      NOT AVBL
WATERTOWN      SUNNY     77  54  44 E7        30.20F
6HR MIN TEMP:  76; 6HR MAX TEMP:  80;

HURON          MOSUNNY   79  55  43 E8        30.16F
6HR MIN TEMP:  78; 6HR MAX TEMP:  82;

SISSETON         N/A     78  58  49 E5        30.18F
ABERDEEN       PTSUNNY   78  55  44 E8        30.18F
6HR MIN TEMP:  77; 6HR MAX TEMP:  81;

MITCHELL       SUNNY     81  58  45 E12       30.16F
PIERRE         MOSUNNY   86  52  30 SE18      30.10F
6HR MIN TEMP:  82; 6HR MAX TEMP:  88;

MOBRIDGE       MOSUNNY   82  57  42 SE18G25   30.11F
RAPID CITY     SUNNY     84  65  52 SE14      30.09F
6HR MIN TEMP:  78; 6HR MAX TEMP:  85;

$$

  *****  SOME WEATHER IN NEARBY STATES *****

CITY           SKY/WX    TMP DP  RH WIND       PRES   REMARKS
GLASGOW MT     SUNNY     92  58  31 E17       29.94F HX  91
6HR MIN TEMP:  84; 6HR MAX TEMP:  93;

GREAT FALLS MT SUNNY     91  48  22 S7        29.93F
6HR MIN TEMP:  81; 6HR MAX TEMP:  93;

CHEYENNE WY    CLOUDY    77  63  61 S12G22    30.30F
6HR MIN TEMP:  74; 6HR MAX TEMP:  82;

SCOTTSBLUFF NE MOSUNNY   89  66  46 S7        30.13F HX  91
6HR MIN TEMP:  84; 6HR MAX TEMP:  93;

OMAHA NE       SUNNY     83  59  44 NE9       30.14F
6HR MIN TEMP:  82; 6HR MAX TEMP:  86;

DES MOINES IA  MOSUNNY   80  56  43 NE12      30.14F
6HR MIN TEMP:  80; 6HR MAX TEMP:  85;

DAVENPORT IA   SUNNY     76  57  51 NE10      30.13F
6HR MIN TEMP:  75; 6HR MAX TEMP:  79;

CHICAGO IL     MOSUNNY   67  49  52 NE15G25   30.15S
6HR MIN TEMP:  67; 6HR MAX TEMP:  75;

EAU CLAIRE WI  SUNNY     78  54  43 NE9       30.15F
6HR MIN TEMP:  77; 6HR MAX TEMP:  82;

LA CROSSE WI   MOSUNNY   80  56  43 NW9       30.14F
6HR MIN TEMP:  78; 6HR MAX TEMP:  84;

$$

  *****  SOME NATIONAL WEATHER *****

CITY           SKY/WX    TMP DP  RH WIND       PRES   REMARKS
LA GUARDIA NY  MOCLDY    84  71  65 S9G16     29.78R
6HR MIN TEMP:  83; 6HR MAX TEMP:  89;




USA.gov is the U.S. government's official web portal to all federal, state and local government web resources and services.